Location: Leiter
(44.7178°N, 106.2687°W)
Time: 10:09:04
(UTC+00:00)

ESTCUBE 1 - Pass Details

Date: 05 July 2022
Orbit: 645 x 657 km, 97.9° (Epoch: 15 August)

Event Time Altitude Azimuth Distance (km) Brightness Sun altitude
Exits shadow 03:50:06 - 106° (ESE) 2,244 ? -8.6°
Reaches altitude 10° 03:50:51 10° 99° (E) 2,048 ? -8.7°
Maximum altitude 03:53:31 16° 62° (ENE) 1,693 ? -9.0°
Drops below altitude 10° 03:56:12 10° 25° (NNE) 2,061 ? -9.4°
Sets 03:59:10 0° 4° (N) 2,979 ? -9.7°
